Weather History for Monterrey Gen Maria, Mexico

Change the Weather History Date:

Sunday, October 21, 2012

  Actual Average Record
Temperature  
Mean Temperature 79 °F -  
Max Temperature 87 °F 81 °F 96 °F (1996)
Min Temperature 71 °F 61 °F 44 °F (1999)
Cooling Degree Days 14    
Growing Degree Days 29 (Base 50)    
Moisture  
Dew Point 67 °F    
Average Humidity 70    
Maximum Humidity 88    
Minimum Humidity 46    
Precipitation  
Precipitation 0.00 in - - ()
Sea Level Pressure  
Sea Level Pressure 29.86 in    
Wind  
Wind Speed 5 mph ()    
Max Wind Speed 14 mph    
Max Gust Speed -    
Visibility 8.9 miles    
Events      
Averages and records for this station are not official NWS values.
T = Trace of Precipitation, MM = Missing Value Source: Averaged Metar Reports

Daily Weather History Graph

Daily Weather History Graph

Search for Another Location

Airport:

Trip Planner

Search our weather history database for the weather conditions in past years. The results will help you decide how hot, cold, wet, or windy it might be!

Date:

Astronomy

Oct. 21, 2012 Rise Set
Actual Time 7:42 AM CDT 7:06 PM CDT
Civil Twilight 7:19 AM CDT 7:30 PM CDT
Nautical Twilight 6:52 AM CDT 7:57 PM CDT
Astronomical Twilight 6:25 AM CDT 8:23 PM CDT
Moon 1:53 PM CDT (10/21) 12:10 AM CDT (10/21)
Length of Visible Light 12h 10m
Length of Day
11h 24m
Waxing Crescent, 45% of the Moon is Illuminated
Oct 21
Waxing Crescent
Oct 21
First Quarter
Oct 29
Full
Nov 6
Last Quarter
Nov 13
New

Hourly Weather History & Observations

Time (CDT) Temp. Heat Index Dew Point Humidity Pressure Visibility Wind Dir Wind Speed Gust Speed Precip Events Conditions
12:42 AM 75.2 °F - 68.0 °F 78% 29.83 in 15.0 mi ESE 5.8 mph - N/A   Clear
1:50 AM 73.4 °F - 68.0 °F 83% 29.85 in 15.0 mi East 8.1 mph - N/A   Clear
2:50 AM 71.6 °F - 68.0 °F 88% 29.85 in 15.0 mi ENE 3.5 mph - N/A   Clear
3:40 AM 71.6 °F - 68.0 °F 88% 29.80 in 12.0 mi ENE 5.8 mph - N/A   Clear
4:45 AM 71.6 °F - 68.0 °F 88% 29.85 in 12.0 mi East 5.8 mph - N/A   Overcast
5:40 AM 73.4 °F - 68.0 °F 83% 29.85 in 10.0 mi ESE 5.8 mph - N/A   Overcast
6:40 AM 73.4 °F - 68.0 °F 83% 29.82 in 10.0 mi East 4.6 mph - N/A   Overcast
7:39 AM 73.4 °F - 68.0 °F 83% 29.88 in 5.0 mi ESE 3.5 mph - N/A   Overcast
7:52 AM 73.4 °F - 68.0 °F 83% 29.88 in 2.5 mi East 3.5 mph - N/A   Overcast
8:49 AM 73.4 °F - 68.0 °F 83% 29.89 in 2.5 mi East 3.5 mph - N/A   Overcast
9:47 AM 75.2 °F - 68.0 °F 78% 29.86 in 3.0 mi East 4.6 mph - N/A   Overcast
10:43 AM 75.2 °F - 66.2 °F 73% 29.93 in 3.0 mi East 3.5 mph - N/A   Haze
11:45 AM 77.0 °F - 66.2 °F 69% 29.93 in 3.0 mi East 4.6 mph - N/A   Haze
12:47 PM 78.8 °F - 66.2 °F 65% 29.91 in 4.0 mi SW 3.5 mph - N/A   Mostly Cloudy
1:49 PM 82.4 °F 84.6 °F 66.2 °F 58% 29.88 in 4.0 mi ESE 6.9 mph - N/A   Scattered Clouds
2:48 PM 86.0 °F 87.3 °F 64.4 °F 48% 29.85 in 5.0 mi SSE 8.1 mph - N/A   Clear
3:50 PM 87.8 °F 89.4 °F 64.4 °F 46% 29.86 in 5.0 mi ESE 10.4 mph - N/A   Clear
4:47 PM 87.8 °F 90.4 °F 66.2 °F 49% 29.82 in 7.0 mi East 9.2 mph - N/A   Clear
5:48 PM 87.8 °F 89.4 °F 64.4 °F 46% 29.82 in 7.0 mi ESE 9.2 mph - N/A   Clear
6:49 PM 86.0 °F 88.2 °F 66.2 °F 51% 29.80 in 10.0 mi SSE 5.8 mph - N/A   Clear
7:44 PM 82.4 °F 84.6 °F 66.2 °F 58% 29.83 in 12.0 mi SSE 4.6 mph - N/A   Clear
8:44 PM 78.8 °F - 68.0 °F 69% 29.84 in 15.0 mi SE 4.6 mph - N/A   Clear
9:40 PM 78.8 °F - 64.4 °F 61% 29.88 in 15.0 mi East 11.5 mph - N/A   Clear
10:40 PM 78.8 °F - 68.0 °F 69% 29.88 in 15.0 mi East 13.8 mph - N/A   Clear
11:42 PM 77.0 °F - 68.0 °F 74% 29.89 in 15.0 mi East 11.5 mph - N/A   Clear